QPF
0.03 0.03 0.02 0.03 0.07 0.11 0.09 0.09 0.06 0.04 0.04 0.03 0.02 0.03 0.03 0.03 0.02 0.02 0.02 0.02 0.01 0.02 0.02 0.03 0.04 0.05 0.07 0.08 0.07 0.07 0.07 0.05 0.05 0.05 0.06 0.06 0.07 0.06 0.04 0.04 0.05 0.04 0.03
0.03 0.02 0.02 0.02 0.03 0.06 0.10 0.11 0.07 0.04 0.03 0.03 0.02 0.02 0.03 0.03 0.03 0.03 0.03 0.03 0.02 0.02 0.03 0.05 0.05 0.04 0.05 0.06 0.06 0.05 0.06 0.05 0.04 0.03 0.04 0.05 0.07 0.06 0.04 0.03 0.04 0.03 0.03
0.04 0.02 0.02 0.02 0.02 0.02 0.02 0.03 0.03 0.03 0.03 0.02 0.02 0.02 0.02 0.03 0.05 0.05 0.04 0.04 0.04 0.04 0.05 0.06 0.07 0.05 0.05 0.06 0.05 0.04 0.04 0.05 0.04 0.03 0.03 0.03 0.04 0.04 0.04 0.04 0.05 0.04 0.04
0.04 0.03 0.02 0.01 0.01 0.01 0.01 0.02 0.02 0.02 0.02 0.02 0.02 0.02 0.02 0.02 0.04 0.05 0.04 0.04 0.06 0.07 0.08 0.08 0.08 0.07 0.07 0.07 0.05 0.05 0.04 0.04 0.03 0.03 0.03 0.03 0.02 0.03 0.02 0.03 0.04 0.04 0.04
0.04 0.03 0.02 0.02 0.02 0.02 0.01 0.01 0.02 0.02 0.02 0.02 0.02 0.02 0.02 0.02 0.03 0.04 0.04 0.04 0.05 0.07 0.09 0.11 0.10 0.07 0.08 0.09 0.06 0.05 0.05 0.05 0.04 0.04 0.04 0.03 0.02 0.02 0.02 0.01 0.02 0.03 0.04
0.03 0.02 0.03 0.03 0.02 0.01 0.01 0.02 0.02 0.02 0.02 0.02 0.02 0.03 0.03 0.03 0.03 0.04 0.05 0.05 0.06 0.09 0.11 0.14 0.12 0.10 0.11 0.09 0.07 0.05 0.05 0.04 0.03 0.03 0.03 0.03 0.03 0.03 0.03 0.02 0.02 0.02 0.02
0.03 0.02 0.03 0.02 0.02 0.02 0.01 0.02 0.03 0.03 0.03 0.03 0.03 0.03 0.04 0.04 0.03 0.04 0.05 0.06 0.07 0.08 0.10 0.11 0.11 0.10 0.11 0.09 0.07 0.06 0.04 0.03 0.03 0.02 0.02 0.02 0.03 0.03 0.03 0.04 0.04 0.03 0.02
0.03 0.04 0.04 0.04 0.03 0.02 0.02 0.02 0.02 0.02 0.03 0.03 0.04 0.05 0.05 0.05 0.05 0.04 0.04 0.06 0.07 0.09 0.10 0.10 0.09 0.08 0.08 0.08 0.07 0.06 0.04 0.03 0.03 0.02 0.02 0.02 0.02 0.02 0.02 0.03 0.03 0.02 0.02
0.04 0.05 0.05 0.04 0.03 0.02 0.02 0.01 0.01 0.02 0.03 0.05 0.06 0.06 0.06 0.06 0.07 0.06 0.06 0.06 0.08 0.08 0.06 0.06 0.06 0.07 0.08 0.08 0.06 0.05 0.04 0.04 0.03 0.03 0.02 0.03 0.03 0.02 0.02 0.02 0.03 0.03 0.03
0.05 0.05 0.04 0.03 0.03 0.03 0.02 0.01 0.01 0.01 0.02 0.03 0.03 0.04 0.03 0.04 0.05 0.05 0.05 0.06 0.06 0.04 0.04 0.03 0.05 0.07 0.07 0.07 0.07 0.04 0.03 0.03 0.03 0.03 0.03 0.03 0.03 0.04 0.04 0.03 0.02 0.02 0.03
0.07 0.06 0.05 0.05 0.05 0.03 0.02 0.02 0.02 0.02 0.02 0.02 0.02 0.02 0.02 0.02 0.04 0.04 0.04 0.04 0.03 0.03 0.03 0.03 0.03 0.05 0.06 0.06 0.05 0.04 0.03 0.02 0.03 0.03 0.02 0.03 0.03 0.04 0.05 0.03 0.03 0.03 0.03
0.09 0.08 0.07 0.06 0.04 0.03 0.04 0.05 0.04 0.03 0.05 0.07 0.06 0.03 0.02 0.02 0.03 0.04 0.05 0.04 0.03 0.03 0.02 0.02 0.02 0.03 0.04 0.05 0.05 0.04 0.03 0.04 0.03 0.02 0.02 0.02 0.02 0.02 0.03 0.03 0.03 0.03 0.05
0.08 0.08 0.07 0.05 0.03 0.02 0.03 0.04 0.04 0.03 0.03 0.05 0.06 0.06 0.03 0.02 0.03 0.04 0.05 0.05 0.03 0.02 0.02 0.02 0.02 0.03 0.03 0.04 0.04 0.04 0.03 0.03 0.04 0.02 0.01 0.01 0.01 0.01 0.02 0.03 0.02 0.03 0.04
0.11 0.08 0.06 0.04 0.03 0.03 0.02 0.03 0.03 0.03 0.03 0.03 0.03 0.05 0.06 0.04 0.03 0.04 0.05 0.05 0.03 0.03 0.02 0.01 0.02 0.02 0.02 0.03 0.04 0.05 0.05 0.03 0.02 0.02 0.01 0.01 0.01 0.01 0.02 0.03 0.03 0.03 0.04
0.08 0.06 0.06 0.06 0.06 0.05 0.04 0.03 0.03 0.02 0.01 0.01 0.01 0.01 0.02 0.03 0.04 0.05 0.05 0.04 0.03 0.03 0.03 0.02 0.02 0.02 0.02 0.02 0.03 0.04 0.05 0.05 0.04 0.03 0.02 0.01 0.01 0.01 0.01 0.02 0.02 0.03 0.03
0.06 0.06 0.06 0.08 0.09 0.07 0.06 0.04 0.03 0.03 0.02 0.01 0.01 0.01 0.02 0.03 0.03 0.04 0.05 0.04 0.03 0.03 0.02 0.02 0.02 0.02 0.01 0.01 0.02 0.04 0.04 0.04 0.04 0.04 0.03 0.02 0.01 0.01 0.01 0.02 0.02 0.03 0.03
0.05 0.06 0.08 0.08 0.08 0.08 0.06 0.03 0.02 0.02 0.03 0.03 0.03 0.02 0.02 0.03 0.04 0.05 0.05 0.05 0.03 0.03 0.02 0.02 0.03 0.02 0.01 0.02 0.02 0.03 0.04 0.05 0.04 0.03 0.03 0.03 0.01 0.01 0.01 0.02 0.02 0.02 0.02
0.03 0.05 0.05 0.05 0.05 0.05 0.04 0.02 0.02 0.02 0.02 0.03 0.06 0.04 0.03 0.04 0.04 0.05 0.06 0.04 0.03 0.03 0.02 0.02 0.02 0.02 0.01 0.02 0.02 0.03 0.04 0.04 0.04 0.04 0.04 0.04 0.03 0.02 0.02 0.02 0.02 0.01 0.01
0.02 0.03 0.03 0.03 0.04 0.03 0.01 0.01 0.01 0.02 0.02 0.02 0.04 0.08 0.07 0.05 0.04 0.05 0.04 0.04 0.04 0.04 0.03 0.02 0.02 0.02 0.02 0.02 0.02 0.02 0.03 0.03 0.03 0.05 0.05 0.05 0.04 0.04 0.04 0.04 0.02 0.02 0.01
0.03 0.04 0.04 0.04 0.04 0.02 0.01 0.01 0.01 0.01 0.02 0.03 0.03 0.04 0.06 0.06 0.05 0.05 0.04 0.03 0.05 0.04 0.04 0.03 0.03 0.02 0.01 0.01 0.02 0.03 0.03 0.02 0.02 0.03 0.04 0.05 0.04 0.05 0.06 0.04 0.04 0.03 0.02
0.03 0.03 0.03 0.02 0.02 0.01 0.01 0.01 0.01 0.02 0.02 0.03 0.04 0.04 0.03 0.04 0.06 0.05 0.04 0.04 0.04 0.04 0.04 0.03 0.03 0.03 0.02 0.02 0.02 0.02 0.03 0.02 0.02 0.02 0.02 0.02 0.04 0.05 0.06 0.05 0.04 0.04 0.04
0.02 0.03 0.04 0.02 0.01 0.01 0.01 0.01 0.02 0.02 0.03 0.03 0.03 0.04 0.04 0.04 0.05 0.06 0.05 0.05 0.04 0.04 0.03 0.03 0.03 0.03 0.02 0.02 0.02 0.02 0.02 0.02 0.03 0.02 0.02 0.03 0.03 0.04 0.05 0.05 0.05 0.05 0.06
0.02 0.02 0.03 0.02 0.02 0.01 0.01 0.01 0.01 0.02 0.03 0.03 0.03 0.03 0.04 0.05 0.05 0.05 0.05 0.05 0.05 0.04 0.03 0.03 0.03 0.03 0.03 0.03 0.03 0.03 0.02 0.02 0.03 0.03 0.03 0.04 0.05 0.06 0.06 0.05 0.04 0.04 0.04
0.02 0.03 0.02 0.03 0.02 0.02 0.02 0.02 0.02 0.02 0.02 0.02 0.02 0.02 0.03 0.04 0.04 0.05 0.05 0.05 0.06 0.06 0.05 0.05 0.04 0.03 0.04 0.03 0.03 0.03 0.03 0.03 0.03 0.04 0.04 0.04 0.04 0.06 0.08 0.08 0.06 0.04 0.03
0.03 0.04 0.03 0.02 0.02 0.02 0.02 0.02 0.02 0.02 0.02 0.02 0.02 0.03 0.03 0.04 0.05 0.05 0.05 0.05 0.05 0.06 0.07 0.07 0.06 0.04 0.04 0.03 0.03 0.03 0.03 0.03 0.03 0.04 0.05 0.06 0.05 0.05 0.06 0.06 0.07 0.06 0.04
0.02 0.03 0.04 0.03 0.02 0.02 0.02 0.02 0.02 0.02 0.02 0.02 0.03 0.04 0.04 0.04 0.05 0.05 0.05 0.05 0.06 0.07 0.08 0.08 0.08 0.06 0.05 0.05 0.05 0.05 0.05 0.05 0.04 0.04 0.05 0.05 0.06 0.05 0.05 0.06 0.07 0.07 0.05
MSLP
1002.37 1003.00 1003.66 1004.29 1004.83 1005.28 1005.65 1005.98 1006.30 1006.65 1007.01 1007.37 1007.70 1007.94 1008.04 1007.98 1007.75 1007.39 1006.95 1006.52 1006.16 1005.96 1005.94 1006.15 1006.57 1007.17 1007.92 1008.78 1009.71 1010.70 1011.73 1012.78 1013.86 1014.94 1016.01 1017.01 1017.91 1018.68 1019.28 1019.71 1019.98 1020.14 1020.24
1002.41 1002.94 1003.51 1004.06 1004.54 1004.95 1005.31 1005.66 1006.04 1006.48 1006.96 1007.45 1007.90 1008.25 1008.44 1008.44 1008.24 1007.90 1007.48 1007.06 1006.73 1006.57 1006.61 1006.87 1007.34 1007.96 1008.69 1009.49 1010.32 1011.18 1012.06 1012.99 1013.95 1014.97 1016.00 1017.02 1017.99 1018.85 1019.55 1020.08 1020.44 1020.66 1020.79
1002.56 1002.96 1003.42 1003.87 1004.28 1004.65 1005.00 1005.37 1005.80 1006.32 1006.90 1007.51 1008.08 1008.54 1008.82 1008.89 1008.76 1008.46 1008.09 1007.72 1007.45 1007.34 1007.44 1007.75 1008.24 1008.85 1009.53 1010.24 1010.95 1011.66 1012.38 1013.14 1013.98 1014.90 1015.88 1016.91 1017.92 1018.86 1019.67 1020.31 1020.78 1021.08 1021.26
1002.87 1003.13 1003.47 1003.82 1004.16 1004.48 1004.82 1005.20 1005.68 1006.25 1006.91 1007.61 1008.27 1008.81 1009.19 1009.34 1009.29 1009.07 1008.77 1008.48 1008.28 1008.24 1008.39 1008.74 1009.23 1009.82 1010.44 1011.04 1011.61 1012.16 1012.71 1013.32 1014.01 1014.81 1015.73 1016.72 1017.75 1018.75 1019.64 1020.39 1020.96 1021.36 1021.62
1003.34 1003.46 1003.69 1003.96 1004.25 1004.54 1004.86 1005.25 1005.74 1006.35 1007.05 1007.79 1008.50 1009.11 1009.55 1009.78 1009.81 1009.69 1009.48 1009.28 1009.17 1009.20 1009.41 1009.78 1010.27 1010.81 1011.36 1011.86 1012.31 1012.71 1013.11 1013.55 1014.10 1014.78 1015.60 1016.55 1017.56 1018.57 1019.52 1020.33 1020.99 1021.48 1021.82
1003.94 1003.96 1004.10 1004.32 1004.57 1004.84 1005.15 1005.54 1006.03 1006.63 1007.32 1008.06 1008.79 1009.42 1009.90 1010.19 1010.30 1010.26 1010.16 1010.06 1010.03 1010.14 1010.40 1010.79 1011.27 1011.78 1012.26 1012.68 1013.02 1013.30 1013.57 1013.88 1014.29 1014.85 1015.56 1016.42 1017.37 1018.36 1019.30 1020.16 1020.87 1021.43 1021.84
1004.60 1004.55 1004.66 1004.85 1005.09 1005.35 1005.66 1006.03 1006.50 1007.06 1007.71 1008.41 1009.10 1009.71 1010.20 1010.53 1010.70 1010.75 1010.75 1010.74 1010.81 1010.98 1011.28 1011.70 1012.17 1012.66 1013.09 1013.45 1013.72 1013.91 1014.09 1014.29 1014.59 1015.03 1015.63 1016.37 1017.22 1018.13 1019.04 1019.88 1020.62 1021.22 1021.69
1005.24 1005.18 1005.28 1005.48 1005.73 1006.00 1006.30 1006.65 1007.07 1007.58 1008.15 1008.77 1009.39 1009.96 1010.43 1010.77 1011.00 1011.12 1011.20 1011.29 1011.44 1011.68 1012.03 1012.46 1012.94 1013.40 1013.82 1014.14 1014.37 1014.52 1014.64 1014.77 1014.98 1015.31 1015.78 1016.39 1017.12 1017.92 1018.75 1019.54 1020.26 1020.88 1021.39
1005.81 1005.77 1005.90 1006.12 1006.38 1006.67 1006.96 1007.28 1007.64 1008.07 1008.55 1009.07 1009.61 1010.11 1010.55 1010.90 1011.16 1011.36 1011.52 1011.70 1011.93 1012.23 1012.62 1013.07 1013.55 1014.01 1014.41 1014.73 1014.95 1015.08 1015.17 1015.26 1015.41 1015.65 1016.00 1016.48 1017.07 1017.74 1018.45 1019.16 1019.84 1020.46 1021.00
1006.29 1006.29 1006.45 1006.69 1006.97 1007.25 1007.52 1007.80 1008.10 1008.44 1008.82 1009.25 1009.70 1010.15 1010.56 1010.92 1011.22 1011.48 1011.73 1011.99 1012.30 1012.66 1013.08 1013.55 1014.03 1014.49 1014.88 1015.20 1015.42 1015.56 1015.65 1015.72 1015.82 1015.99 1016.25 1016.60 1017.06 1017.59 1018.18 1018.80 1019.41 1020.01 1020.56
1006.71 1006.74 1006.91 1007.15 1007.41 1007.67 1007.90 1008.12 1008.35 1008.62 1008.92 1009.27 1009.65 1010.06 1010.46 1010.84 1011.20 1011.54 1011.88 1012.22 1012.60 1013.01 1013.46 1013.94 1014.41 1014.86 1015.24 1015.55 1015.78 1015.93 1016.03 1016.10 1016.18 1016.29 1016.47 1016.73 1017.07 1017.48 1017.96 1018.48 1019.03 1019.59 1020.15
1007.14 1007.18 1007.32 1007.51 1007.72 1007.91 1008.08 1008.23 1008.40 1008.59 1008.83 1009.13 1009.48 1009.87 1010.29 1010.73 1011.16 1011.59 1012.01 1012.45 1012.89 1013.35 1013.82 1014.29 1014.74 1015.16 1015.51 1015.81 1016.02 1016.18 1016.28 1016.35 1016.42 1016.51 1016.64 1016.82 1017.08 1017.40 1017.78 1018.23 1018.72 1019.25 1019.80
1007.67 1007.66 1007.72 1007.81 1007.92 1008.01 1008.08 1008.16 1008.26 1008.40 1008.60 1008.88 1009.23 1009.64 1010.10 1010.60 1011.12 1011.65 1012.17 1012.68 1013.19 1013.68 1014.16 1014.61 1015.02 1015.39 1015.70 1015.95 1016.14 1016.28 1016.38 1016.45 1016.52 1016.60 1016.71 1016.86 1017.07 1017.33 1017.66 1018.05 1018.49 1018.99 1019.52
1008.35 1008.23 1008.16 1008.11 1008.07 1008.02 1007.99 1007.98 1008.01 1008.11 1008.29 1008.57 1008.94 1009.39 1009.92 1010.50 1011.10 1011.72 1012.33 1012.91 1013.47 1013.99 1014.46 1014.88 1015.24 1015.54 1015.79 1015.98 1016.12 1016.23 1016.31 1016.39 1016.46 1016.55 1016.67 1016.82 1017.02 1017.26 1017.56 1017.92 1018.33 1018.80 1019.30
1009.17 1008.91 1008.66 1008.43 1008.22 1008.02 1007.87 1007.77 1007.74 1007.81 1007.98 1008.27 1008.67 1009.17 1009.75 1010.39 1011.07 1011.76 1012.44 1013.08 1013.67 1014.20 1014.66 1015.04 1015.34 1015.57 1015.75 1015.87 1015.96 1016.03 1016.09 1016.17 1016.26 1016.37 1016.51 1016.69 1016.90 1017.16 1017.46 1017.81 1018.20 1018.64 1019.11
1010.05 1009.63 1009.20 1008.78 1008.40 1008.06 1007.79 1007.60 1007.53 1007.57 1007.74 1008.03 1008.45 1008.97 1009.58 1010.26 1010.98 1011.71 1012.42 1013.09 1013.70 1014.23 1014.67 1015.01 1015.26 1015.43 1015.54 1015.60 1015.64 1015.68 1015.73 1015.81 1015.92 1016.07 1016.25 1016.47 1016.73 1017.02 1017.34 1017.69 1018.08 1018.48 1018.91
1010.88 1010.30 1009.71 1009.14 1008.61 1008.15 1007.78 1007.54 1007.42 1007.44 1007.59 1007.87 1008.27 1008.78 1009.38 1010.05 1010.76 1011.48 1012.19 1012.86 1013.46 1013.98 1014.40 1014.72 1014.95 1015.08 1015.16 1015.18 1015.20 1015.22 1015.26 1015.35 1015.49 1015.68 1015.92 1016.19 1016.50 1016.83 1017.18 1017.54 1017.92 1018.30 1018.69
1011.50 1010.81 1010.11 1009.43 1008.81 1008.28 1007.86 1007.57 1007.42 1007.41 1007.53 1007.78 1008.13 1008.58 1009.11 1009.71 1010.35 1011.02 1011.68 1012.31 1012.90 1013.41 1013.83 1014.15 1014.38 1014.52 1014.59 1014.63 1014.65 1014.68 1014.75 1014.87 1015.05 1015.28 1015.57 1015.89 1016.25 1016.62 1016.99 1017.36 1017.72 1018.08 1018.42
1011.80 1011.06 1010.31 1009.60 1008.95 1008.41 1007.98 1007.68 1007.52 1007.48 1007.55 1007.72 1007.98 1008.32 1008.73 1009.21 1009.74 1010.30 1010.89 1011.47 1012.02 1012.53 1012.96 1013.32 1013.59 1013.78 1013.90 1013.99 1014.06 1014.14 1014.25 1014.42 1014.64 1014.92 1015.25 1015.61 1016.00 1016.39 1016.78 1017.15 1017.50 1017.82 1018.12
1011.72 1011.00 1010.28 1009.60 1008.99 1008.49 1008.10 1007.82 1007.65 1007.58 1007.58 1007.66 1007.79 1007.99 1008.24 1008.56 1008.94 1009.38 1009.86 1010.37 1010.90 1011.41 1011.88 1012.29 1012.64 1012.92 1013.15 1013.32 1013.48 1013.64 1013.82 1014.04 1014.31 1014.63 1014.99 1015.38 1015.79 1016.19 1016.58 1016.94 1017.26 1017.55 1017.81
1011.27 1010.63 1010.00 1009.42 1008.92 1008.50 1008.17 1007.93 1007.77 1007.66 1007.59 1007.55 1007.55 1007.58 1007.66 1007.80 1008.02 1008.32 1008.70 1009.14 1009.64 1010.16 1010.69 1011.18 1011.64 1012.03 1012.38 1012.67 1012.94 1013.20 1013.46 1013.75 1014.06 1014.42 1014.81 1015.21 1015.62 1016.02 1016.39 1016.73 1017.03 1017.28 1017.50
1010.55 1010.04 1009.55 1009.11 1008.73 1008.41 1008.17 1007.97 1007.81 1007.67 1007.52 1007.38 1007.23 1007.11 1007.02 1007.00 1007.06 1007.24 1007.52 1007.90 1008.38 1008.92 1009.50 1010.08 1010.64 1011.16 1011.63 1012.06 1012.44 1012.79 1013.14 1013.49 1013.86 1014.24 1014.65 1015.05 1015.46 1015.85 1016.20 1016.52 1016.79 1017.02 1017.22
1009.71 1009.34 1009.00 1008.70 1008.46 1008.25 1008.08 1007.93 1007.77 1007.59 1007.38 1007.13 1006.87 1006.61 1006.38 1006.22 1006.16 1006.23 1006.43 1006.77 1007.23 1007.79 1008.41 1009.07 1009.72 1010.34 1010.91 1011.44 1011.92 1012.37 1012.78 1013.19 1013.60 1014.01 1014.43 1014.84 1015.24 1015.62 1015.97 1016.28 1016.54 1016.76 1016.94
1008.88 1008.66 1008.46 1008.30 1008.17 1008.05 1007.94 1007.81 1007.64 1007.43 1007.15 1006.83 1006.48 1006.12 1005.79 1005.54 1005.40 1005.39 1005.54 1005.84 1006.28 1006.84 1007.48 1008.16 1008.86 1009.54 1010.18 1010.77 1011.32 1011.82 1012.29 1012.74 1013.18 1013.61 1014.05 1014.48 1014.89 1015.27 1015.63 1015.94 1016.21 1016.43 1016.62
1008.22 1008.12 1008.04 1007.97 1007.92 1007.86 1007.77 1007.64 1007.46 1007.20 1006.88 1006.51 1006.10 1005.69 1005.31 1005.01 1004.83 1004.78 1004.89 1005.16 1005.56 1006.09 1006.71 1007.38 1008.06 1008.73 1009.38 1009.98 1010.54 1011.06 1011.55 1012.02 1012.49 1012.95 1013.41 1013.86 1014.30 1014.72 1015.10 1015.44 1015.74 1015.99 1016.21
1007.82 1007.81 1007.81 1007.80 1007.78 1007.73 1007.63 1007.49 1007.27 1006.98 1006.63 1006.22 1005.79 1005.37 1004.99 1004.68 1004.49 1004.42 1004.50 1004.73 1005.08 1005.54 1006.09 1006.68 1007.28 1007.89 1008.46 1009.01 1009.53 1010.03 1010.51 1010.98 1011.47 1011.96 1012.45 1012.95 1013.43 1013.90 1014.33 1014.72 1015.07 1015.37 1015.63
Thickness
5780 5781 5780 5777 5774 5770 5767 5763 5758 5756 5753 5751 5749 5747 5745 5745 5745 5745 5744 5742 5741 5739 5737 5735 5733 5732 5729 5728 5727 5724 5722 5720 5720 5717 5714 5715 5718 5718 5718 5718 5718 5717 5717
5770 5771 5772 5771 5768 5765 5762 5759 5755 5752 5751 5749 5747 5746 5744 5743 5742 5741 5740 5739 5737 5736 5735 5733 5730 5729 5727 5725 5724 5722 5719 5717 5718 5714 5708 5703 5706 5711 5716 5715 5715 5715 5715
5764 5764 5765 5764 5763 5760 5758 5756 5752 5750 5748 5747 5745 5743 5740 5738 5735 5735 5735 5735 5735 5733 5732 5730 5728 5726 5724 5722 5721 5720 5717 5713 5714 5715 5709 5701 5697 5702 5707 5710 5711 5712 5711
5765 5762 5760 5758 5757 5755 5754 5752 5748 5746 5745 5743 5740 5737 5733 5730 5730 5731 5731 5731 5731 5730 5729 5727 5725 5723 5722 5720 5719 5718 5716 5713 5710 5711 5712 5710 5706 5699 5698 5703 5706 5708 5708
5762 5758 5756 5754 5753 5751 5749 5746 5743 5740 5739 5738 5736 5733 5730 5727 5727 5727 5726 5726 5725 5725 5725 5723 5722 5720 5719 5718 5716 5715 5713 5712 5709 5707 5707 5706 5704 5703 5697 5694 5698 5701 5704
5754 5751 5749 5748 5746 5745 5742 5739 5736 5734 5733 5732 5731 5729 5726 5723 5722 5721 5720 5720 5719 5720 5720 5719 5718 5717 5716 5715 5714 5713 5711 5709 5708 5707 5705 5703 5701 5699 5697 5693 5692 5694 5698
5745 5742 5739 5738 5737 5736 5734 5733 5730 5728 5728 5727 5726 5725 5723 5720 5718 5717 5716 5715 5714 5714 5714 5715 5714 5713 5712 5712 5711 5710 5708 5707 5705 5704 5703 5702 5701 5700 5697 5693 5690 5690 5693
5737 5733 5732 5731 5730 5728 5726 5725 5723 5721 5721 5721 5720 5719 5718 5717 5715 5714 5713 5712 5711 5711 5711 5711 5711 5709 5709 5709 5707 5705 5704 5703 5702 5701 5700 5699 5698 5698 5696 5693 5689 5685 5686
5730 5727 5725 5724 5722 5720 5719 5718 5716 5715 5715 5715 5714 5713 5712 5711 5710 5709 5709 5708 5707 5708 5707 5707 5707 5706 5705 5705 5703 5701 5700 5699 5698 5697 5696 5695 5694 5694 5694 5693 5691 5685 5680
5722 5720 5717 5716 5715 5714 5713 5711 5710 5708 5708 5708 5708 5708 5707 5706 5705 5704 5703 5702 5702 5702 5702 5702 5702 5701 5701 5701 5699 5697 5696 5695 5694 5693 5692 5690 5690 5690 5690 5689 5688 5686 5682
5715 5712 5711 5710 5708 5707 5706 5704 5703 5702 5701 5701 5701 5700 5700 5700 5699 5698 5698 5698 5697 5697 5697 5697 5697 5696 5696 5696 5695 5693 5692 5690 5689 5689 5688 5686 5686 5685 5684 5684 5684 5682 5681
5710 5707 5706 5703 5701 5700 5699 5697 5696 5695 5694 5694 5694 5693 5693 5692 5692 5692 5692 5692 5692 5693 5693 5692 5692 5692 5691 5691 5690 5688 5688 5686 5684 5684 5683 5682 5682 5680 5679 5679 5678 5678 5677
5702 5698 5696 5695 5694 5693 5692 5691 5690 5688 5687 5687 5686 5685 5685 5685 5685 5686 5687 5687 5687 5687 5688 5688 5687 5687 5686 5686 5685 5684 5683 5682 5681 5680 5679 5677 5676 5674 5674 5673 5673 5673 5673
5695 5692 5689 5688 5688 5687 5686 5684 5683 5682 5681 5679 5678 5677 5677 5678 5679 5680 5681 5682 5683 5683 5683 5683 5683 5683 5682 5681 5680 5679 5679 5678 5677 5676 5675 5674 5673 5671 5670 5669 5668 5668 5666
5688 5686 5684 5682 5680 5678 5676 5676 5675 5675 5674 5673 5671 5671 5672 5673 5674 5675 5676 5677 5677 5679 5679 5679 5678 5678 5677 5677 5675 5674 5674 5672 5671 5671 5670 5670 5670 5669 5668 5666 5664 5663 5661
5681 5680 5678 5676 5674 5672 5671 5669 5668 5667 5667 5666 5665 5666 5667 5668 5669 5669 5670 5671 5672 5673 5673 5673 5673 5673 5673 5673 5671 5670 5668 5667 5666 5665 5665 5665 5665 5664 5664 5663 5662 5661 5658
5677 5675 5673 5671 5669 5667 5666 5664 5663 5662 5661 5660 5660 5661 5661 5662 5663 5665 5664 5665 5666 5668 5668 5668 5668 5668 5668 5668 5667 5666 5664 5662 5661 5660 5659 5660 5660 5659 5658 5657 5657 5657 5657
5671 5670 5669 5667 5665 5663 5662 5660 5659 5657 5655 5654 5655 5655 5656 5657 5658 5658 5659 5660 5662 5663 5663 5663 5664 5663 5663 5663 5662 5660 5658 5657 5656 5656 5655 5653 5653 5653 5652 5651 5650 5650 5651
5668 5666 5665 5663 5660 5658 5657 5654 5653 5652 5651 5651 5651 5651 5652 5652 5653 5653 5654 5656 5657 5658 5658 5659 5659 5659 5658 5658 5657 5655 5652 5651 5650 5651 5650 5649 5648 5648 5647 5645 5643 5643 5645
5661 5659 5658 5656 5653 5651 5650 5649 5647 5646 5645 5646 5646 5647 5648 5648 5648 5649 5650 5652 5653 5654 5654 5655 5655 5655 5654 5654 5652 5650 5647 5645 5645 5645 5645 5644 5644 5643 5641 5639 5637 5636 5638
5655 5653 5651 5649 5647 5646 5645 5642 5640 5639 5640 5641 5642 5642 5643 5643 5645 5646 5647 5648 5648 5649 5650 5650 5651 5651 5650 5649 5648 5645 5643 5641 5640 5639 5638 5639 5639 5638 5636 5634 5633 5633 5633
5647 5646 5644 5642 5641 5640 5638 5635 5634 5634 5635 5635 5636 5636 5637 5639 5641 5641 5642 5643 5643 5643 5644 5644 5645 5645 5645 5644 5643 5641 5639 5638 5636 5635 5634 5634 5633 5632 5630 5629 5629 5628 5627
5640 5639 5637 5636 5635 5634 5633 5630 5629 5629 5628 5628 5629 5630 5632 5634 5635 5635 5636 5636 5637 5638 5638 5639 5639 5639 5640 5639 5638 5637 5635 5634 5632 5631 5630 5629 5628 5626 5624 5624 5623 5622 5621
5634 5632 5631 5629 5628 5629 5628 5627 5626 5624 5622 5622 5622 5624 5626 5627 5629 5630 5631 5631 5632 5633 5634 5634 5635 5635 5635 5634 5633 5631 5630 5628 5627 5625 5624 5623 5622 5620 5619 5618 5616 5615 5615
5627 5626 5624 5623 5623 5623 5622 5622 5621 5618 5616 5616 5617 5618 5620 5621 5622 5623 5624 5626 5628 5630 5630 5631 5632 5631 5630 5631 5630 5627 5625 5623 5622 5620 5617 5615 5614 5612 5611 5610 5610 5609 5608
5620 5619 5618 5618 5618 5618 5617 5617 5616 5614 5612 5611 5611 5612 5614 5615 5616 5616 5618 5621 5623 5625 5627 5628 5628 5628 5628 5628 5625 5623 5621 5619 5616 5613 5610 5609 5609 5608 5607 5605 5604 5603 5602